Buffalo, WY (82834)

10:22 AM MDT on May 23, 2017 (GMT -0600)
Buffalo | | Change Station

Elev 4708 ft 44.34 °N, 106.70 °W | Updated 5 seconds ago

Clear
Clear
57.4 °F
Feels Like 57.4 °F
N
0.0
Wind Variable Wind from SW
Gusts 0.0 mph

Today
High -- | Low -- °F
--% Chance of Precip.
Yesterday
High -- | Low -- °F
Precip. -- in
Pressure 30.16 in
Visibility 10.0 miles
Clouds Clear
Dew Point 39 °F
Humidity 51%
Rainfall 0.00 in
Snow Depth Not available.
5:31 AM 8:36 PM
Waning Crescent, 7% visible
METAR KBYG 231553Z AUTO 36016G22KT 10SM CLR 14/M01 A3023 RMK AO2 SLP211 T01391006
Pressure 30.16 in
Visibility 10.0 miles
Clouds Clear
Dew Point 39 °F
Humidity 51%
Rainfall 0.00 in
Snow Depth Not available.
5:31 AM 8:36 PM
Waning Crescent, 7% visible
METAR KBYG 231553Z AUTO 36016G22KT 10SM CLR 14/M01 A3023 RMK AO2 SLP211 T01391006

Get Severe Weather Alerts

Thanks for signing up!

Be on the lookout for a verification email in your inbox.

You'll start receiving the daily forecast at 6 AM.

×

10-Day Weather Forecast

Almanac

Astronomy

May. 23, 2017 Rise Set
Actual Time
Civil Twilight
Nautical Twilight
Astronomical Twilight
Moon
Length of Visible Light
Length of Day
Tomorrow will be .
, % of the Moon is Illuminated

Today's Extremes

State Highs State Lows

Community

WunderPhotos

Category 6

Welcome to Category 6. This is the collective home for Weather Underground's featured writeups by Dr. Jeff Masters (right), Bob Henson (left), Chris Burt, and other regular contributors.

Nearby

Air Quality

  Air Quality AQ Index Pollutant
Not available.

Snow Depth

Station Depth Elevation

Earthquake Activity

City Distance Mag. Time & Date
Minimum magnitude displayed is 2.5.

Coastal Water Temperatures

Place Temperature

Stations

Nearby Weather Stations

Station Location Temp. Windchill Dew Point Humidity Wind Precip. Elev Updated Type
                   

Watches & Warnings

There are currently no watches in effect.